DELTA 1 DEB, 21317

Orbit data source: Space-Track

DELTA 1 DEB, 21317 is space debris in SSO originally from a launch on Thu, 12 Jun 1975 UTC launched from the Air Force Western Test Range (AFWTR). Debris objects in space refer to the collection of defunct objects orbiting the Earth. Examples of debris include non-operational satellites, rocket bodies, and fragments generated from explosions, collisions, or faulty payload assembly.

Loading next visibility...
Identifier
21317, 1975-052AK
Orbit
SSO
Country
Flag of USUS
Related business
Manufacturer
Unknown
Mission
Spacecraft
Bus & Motor
Unknown
Mass
Unknown
Launch date (UTC)
1975-06-12 (51 years ago)
Launch vehicle
Unknown
Launch site
Air Force Western Test Range (AFWTR)
Object type
Payload
Rocket body
Debris
Shape & HBR
Unknown shape, 0.1 m
Radar Cross Section
Medium (>0.1 m² and <1 m²)

Expand to show TLE details & history
Last TLE update: 2 days ago

TLE from 2 days ago
0 DELTA 1 DEB
1 21317U 75052AK  26170.31132535  .00000750  00000-0  13119-2 0  9991
2 21317 100.0998 108.2480 0214311 320.3350 192.9125 13.38415607680746
Epoch: 2026-06-19T07:28Z
TLE epoch observation values (Epoch: 2026-06-19T07:28:18.510Z)
Latitude
26.86604°
Longitude
-86.22007°
Altitude
1,275.048 km
Speed
7.145 km/s
True Right ascension
19h 33m 35s
True Declination
26° 44' 13"
Sunlit
Object was in full shadow at epoch
Visualization orbit readout
Latitude
Unknown
Longitude
Unknown
Altitude
Unknown
Speed
Unknown
Apparent Right ascension
Unknown
Apparent Declination
Unknown
Sunlit
N/A
Visualization observer readout
Local Sidereal Time
05:52:24
Azimuth
Unknown
Elevation
Unknown
Doppler factor
Unknown
Orbital elements
Apogee altitude
1,273.056 km
Perigee altitude
951.99 km
Semi-major axis
7,490.66 km
Eccentricity
0.02143
Inclination
100.0998°
RAAN
108.248°
Arg. of periapsis
320.335°
True anomaly
192.3777°
Mean anomaly
192.9125°
Eccentric anomaly
192.64372°
Mean motion
3.34783 °/min
Orbital period
107.53 mins
BSTAR
0.0013119
Loading maneuver chart data...
Computing Atmospheric mass density...
Loading historical data...
Loading historical data...
Loading historical data...
Loading historical data...
Loading historical data...
Loading historical data...
Loading historical data...

Documentation

Showing up to 5 results
|